TIME,DELAY(SENSOR),PRES,OXYGEN,RAWTEMP,T(OPTODE),TCPHASE,FLUOR,BETA(BETA700),BETA(BETA412),BETA(BETA440),CDOM,C(CSC),ED(ED411.90),ED(ED443.80),ED(ED489.40),ED(ED554.70),LU(LU412.20),LU(LU443.80),LU(LU489.40),LU(LU555.00),COMP,TILTX,TILTY,CHECK
1355783366,5804,851.6300048828125000,160.9615936279297000,431.6708984375000000,9.6350955963134770,39.4152412414550800,52,105,50,55,47,12678,2146962788,2147517010,2147287478,2147504100,2147093622,2146930102,2147705206,2147121344,1056,-1,9,63182
1355786962,5805,966.2199707031250000,196.5079040527343800,499.9749145507812500,7.5302720069885250,38.1164283752441400,53,100,52,54,62,12688,2146962185,2147518125,2147292470,2147518226,2147093165,2146926098,2147718738,2147121956,3453,-1,8,35652
1355790562,5806,985.8699951171875000,208.2483978271484400,510.1474914550781000,7.2143287658691410,37.5775909423828100,52,99,51,55,62,12687,2146962569,2147518948,2147296941,2147518628,2147090880,2146922532,2147720347,2147122002,3408,-1,8,48287
1355794162,5806,994.2899780273438000,208.4441986083984400,509.6025085449219000,7.2312750816345215,37.5566291809082000,52,101,51,54,63,12686,2146962422,2147516580,2147298496,2147518994,2147089435,2146921718,2147722688,2147125156,3430,-1,8,33103
1355797762,5806,996.1799926757812000,209.2805023193359400,510.6304931640625000,7.1993098258972170,37.5253105163574200,51,98,51,55,62,12683,2146963062,2147518061,2147295296,2147519469,2147090322,2146931629,2147716251,2147122953,3321,-1,8,46446
1355801362,5807,996.7000122070312000,210.0462951660156200,512.9915161132812000,7.1258749961853030,37.5214118957519500,52,97,52,54,62,12677,2146963803,2147516443,2147294043,2147522560,2147091931,2146927268,2147719917,2147121865,712,-1,8,21642
1355804962,5807,998.9099731445312000,210.3123016357422000,513.7960205078125000,7.1008400917053220,37.5205116271972660,51,102,51,55,62,12680,2146963611,2147518372,2147297956,2147519625,2147090761,2146922294,2147722194,2147122688,164,-1,8,32688
1355808562,5807,997.0800170898438000,209.4716949462890600,515.0261840820312000,7.0625519752502440,37.5918617248535160,52,98,51,54,62,12675,2146962605,2147516800,2147295808,2147520027,2147091904,2146927981,2147723181,2147121398,152,-1,8,19688
1355812162,5807,999.7399902343750000,212.2648925781250000,515.2307739257812000,7.0561838150024410,37.4317588806152340,52,102,50,54,62,12679,2146966546,2147520813,2147297371,2147517385,2147091584,2146923254,2147722569,2147124297,71,-1,8,33906
1355815762,5805,999.8099975585938000,212.6475982666015600,515.9542846679688000,7.0336599349975590,37.4222183227539060,52,98,51,54,62,12679,2146965888,2147517412,2147295625,2147519506,2147089197,2146921901,2147722121,2147121170,3491,-1,8,45807
1355819362,5809,993.1199951171875000,212.7185974121093800,517.6810302734375000,6.9798908233642580,37.4485511779785160,53,98,51,54,61,12665,2146965092,2147522486,2147301037,2147520722,2147091236,2146919954,2147721929,2147123108,17,0,8,3447
1355822962,5806,990.2100219726562000,212.9909973144531200,519.8043823242188000,6.9137420654296875,37.4708786010742200,52,98,50,55,62,12678,2146967542,2147516790,2147297014,2147518866,2147091282,2146921938,2147717046,2147123382,3444,0,8,39543
1355826562,5805,989.9199829101562000,215.9371032714843800,520.3026733398438000,6.8982129096984860,37.3094902038574200,51,98,52,54,61,12679,2146966848,2147521179,2147296448,2147519643,2147090587,2146921472,2147718848,2147124361,3042,-1,8,61201
1355830162,5806,993.5599975585938000,214.7942047119140600,521.2628784179688000,6.8682842254638670,37.3920211791992200,52,98,51,54,61,12678,2146961746,2147516516,2147297974,2147521508,2147091748,2146918089,2147717878,2147122240,3187,-1,8,1578
1355833762,5808,997.0000000000000000,215.4683990478515600,518.8967895507812000,6.9420199394226070,37.3115196228027340,52,99,52,54,62,12677,2146960475,2147519378,2147297408,2147521024,2147091730,2146919396,2147717878,2147122898,3556,-1,9,23280
1355837362,5805,1001.5700073242188000,213.5522003173828000,518.2988891601562000,6.9606471061706540,37.4114112854003900,52,97,51,54,61,12673,2146964260,2147516534,2147296841,2147522880,2147094400,2146924342,2147721243,2147124214,3532,-1,9,52
1355840962,5807,1004.4000244140625000,213.2492980957031200,518.3635253906250000,6.9586348533630370,37.4297294616699200,52,101,51,55,61,12674,2146961362,2147516443,2147298112,2147518089,2147090496,2146921060,2147719104,2147122185,621,-1,8,41712
1355844562,5804,1006.4299926757812000,213.4235992431640600,516.6798706054688000,7.0110669136047360,37.3902816772460940,51,102,50,55,62,12666,2146964653,2147520228,2147299035,2147520173,2147090038,2146923547,2147722934,2147123117,3566,-1,8,25839
1355848162,5805,1005.2500000000000000,213.5245971679687500,516.7777099609375000,7.0080227851867680,37.3861694335937500,52,99,51,56,62,12667,2146964928,2147519817,2147296283,2147520045,2147094125,2146923044,2147718217,2147123940,3408,-1,8,52671
1355851762,5805,1011.2899780273438000,212.6134033203125000,515.4517822265625000,7.0493059158325195,37.4152793884277340,52,101,51,54,62,12664,2146963931,2147518601,2147296164,2147514742,2147090752,2146917394,2147717220,2147121572,2767,-1,8,11575
1355855362,5803,1004.9899902343750000,213.8076019287109400,517.3634033203125000,6.9897837638854980,37.3802604675293000,51,97,51,54,61,12665,2146963574,2147518555,2147296795,2147518912,2147093074,2146926656,2147724059,2147120576,3275,-1,9,51470
1355858962,5807,1002.4199829101562000,213.7274932861328000,517.8839721679688000,6.9735679626464840,37.3938407897949200,51,97,51,54,61,12668,2146961142,2147517065,2147297069,2147519689,2147093979,2146928886,2147721700,2147118802,3371,-1,8,53734
1355862562,5806,998.5999755859375000,215.4132995605468800,519.9099731445312000,6.9104518890380860,37.3328285217285160,50,98,50,54,61,12661,2146963803,2147518811,2147296036,2147518427,2147093010,2146922313,2147721718,2147122733,2945,-1,8,8921
1355866162,5806,1000.3699951171875000,217.2371978759765600,520.7246093750000000,6.8850641250610350,37.2428703308105500,52,97,51,56,63,12663,2146964635,2147518381,2147297993,2147517101,2147090651,2146929408,2147719634,2147123520,2980,-1,8,1512
1355869762,5805,1001.9199829101562000,216.7821960449218800,520.4005737304688000,6.8951630592346190,37.2631301879882800,51,99,51,54,61,12662,2146964022,2147520612,2147296713,2147520585,2147094601,2146921709,2147722139,2147122706,3265,-1,8,52280
1355873362,5804,1003.0800170898438000,216.8795928955078000,520.5451049804688000,6.8906588554382320,37.2609291076660160,51,99,52,54,62,12661,2146964644,2147516489,2147298422,2147518107,2147094665,2146925796,2147720713,2147121078,3128,-1,8,62922
1355876962,5805,1003.7600097656250000,216.6728973388672000,520.1215820312500000,6.9038558006286620,37.2649116516113300,51,104,51,54,62,12660,2146963556,2147516864,2147299803,2147520731,2147091282,2146920749,2147724882,2147121782,3170,-1,8,41966
1355880562,5807,1001.6500244140625000,216.4102020263672000,519.9099121093750000,6.9104528427124020,37.2762298583984400,51,98,52,55,61,12662,2146962084,2147517952,2147298066,2147519341,2147091684,2146924800,2147721243,2147125833,6,0,8,12939
1355884162,5808,1004.5700073242188000,215.9223937988281200,520.0106811523438000,6.9073128700256350,37.3052406311035160,51,101,51,54,62,12663,2146961088,2147515858,2147296813,2147518619,2147093595,2146927652,2147720685,2147121645,233,-1,8,64955
1355887762,5805,1003.8800048828125000,216.6318054199218800,520.7039184570312000,6.8857111930847170,37.2770195007324200,51,98,50,54,61,12661,2146962861,2147513307,2147299008,2147520502,2147092626,2146923574,2147721344,2147124187,3452,-1,8,18603
1355891362,5807,1006.6099853515625000,215.4651031494140600,519.0548706054688000,6.9370942115783690,37.3150482177734400,52,99,51,54,62,12662,2146965604,2147519533,2147292836,2147519296,2147091364,2146924132,2147722633,2147123538,510,-1,8,52716
1355894962,5806,1006.3599853515625000,213.3890991210937500,518.6309814453125000,6.9503011703491210,37.4266204833984400,51,100,52,55,60,12661,2146961572,2147517613,2147297609,2147520749,2147091346,2146919542,2147722404,2147122011,3505,-1,9,58651
1355898562,5806,1005.3599853515625000,213.6183929443359400,518.7581176757812000,6.9463410377502440,37.4155311584472660,53,103,51,53,62,12659,2146967606,2147518016,2147296438,2147521069,2147091264,2146921947,2147719268,2147121764,3582,-1,8,36914
1355902162,5805,999.5800170898438000,216.6761932373047000,520.6209716796875000,6.8882918357849120,37.2735710144043000,52,98,51,54,62,12658,2146965677,2147519414,2147299428,2147520411,2147090011,2146922194,2147720128,2147123446,799,0,8,59090
1355905762,5806,1001.6599731445312000,215.2884063720703000,521.4802856445312000,6.8615088462829590,37.3675117492675800,53,97,51,54,61,12658,2146960018,2147518171,2147296886,2147517138,2147092169,2146922441,2147722038,2147122989,3267,-1,8,41520
1355909362,5804,999.4400024414062000,217.7044067382812500,522.3265991210938000,6.8351249694824220,37.2457199096679700,52,97,51,55,61,12658,2146959552,2147517833,2147296155,2147520329,2147092489,2146923648,2147720713,2147122240,2915,-1,8,64387
1355912962,5805,997.2999877929688000,218.7563018798828000,523.0366210937500000,6.8129868507385250,37.1981391906738300,52,99,51,54,62,12659,2146963428,2147519945,2147295990,2147515986,2147094299,2146927433,2147726098,2147117348,3004,-1,8,10473
1355916562,5804,1000.4400024414062000,218.3780059814453000,522.6358032226562000,6.8254828453063965,37.2123603820800800,51,99,51,54,62,12657,2146965120,2147515190,2147301174,2147519853,2147091392,2146920804,2147725001,2147118966,3180,-1,8,11267
1355920162,5805,1005.0999755859375000,217.7617950439453000,522.0001831054688000,6.8453021049499510,37.2365684509277340,51,99,51,55,62,12634,2146963830,2147519597,2147298459,2147518811,2147094153,2146921389,2147722752,2147124032,3413,-1,8,29349
1355923762,5806,1002.2500000000000000,216.2570953369140600,521.1339111328125000,6.8723068237304690,37.3062095642089840,53,99,50,54,61,12656,2146964260,2147518189,2147298788,2147517513,2147091318,2146914112,2147720082,2147121261,42,-1,8,28758
1355927156,5809,1005.0399780273438000,216.0805969238281200,521.1934814453125000,6.8704481124877930,37.3172492980957000,51,98,51,54,62,12652,2146960448,2147515757,2147301421,2147517632,2147092708,2146919533,2147720694,2147122614,55,-1,8,39859
